When you browse on this site, cookies collect data to enhance your experience and personalize the content and advertising you see.
Visit our Privacy Policy to learn more. By continuing to use the site, you agree to this use of cookies and data.
  • In Netherlands
  • List of Countries
  • For 7 days
  • Water Temperature
  • Weather Map
  • Weather Widgets
  • user-avatar
    Login

    Hourly Weather Soignies

    Today, 30 March, Monday

    Time Temperature Precipitation Wind Pressure Humidity
    00:00 -4°C° 0 mm 5 mps 767 mmHg 53%
    01:00 -4°C° 0 mm 5 mps 767 mmHg 56%
    02:00 -4°C° 0 mm 5 mps 766 mmHg 58%
    03:00 -4°C° 0 mm 4 mps 766 mmHg 61%
    04:00 -4°C° 0 mm 4 mps 766 mmHg 63%
    05:00 -4°C° 0 mm 3 mps 766 mmHg 64%
    06:00 -4°C° 0 mm 3 mps 766 mmHg 65%
    07:00 -2°C° 0 mm 4 mps 766 mmHg 59%
    08:00 0°C° 0 mm 4 mps 766 mmHg 53%
    09:00 +2°C° 0 mm 5 mps 766 mmHg 47%
    10:00 +4°C° 0 mm 4 mps 765 mmHg 47%
    11:00 +5°C° 0 mm 4 mps 765 mmHg 47%
    12:00 +6°C° 0 mm 4 mps 764 mmHg 47%
    13:00 +7°C° 0 mm 4 mps 764 mmHg 49%
    14:00 +7°C° 0 mm 5 mps 763 mmHg 51%
    15:00 +7°C° 0 mm 5 mps 763 mmHg 53%
    16:00 +6°C° 0 mm 4 mps 763 mmHg 61%
    17:00 +5°C° 0 mm 4 mps 763 mmHg 69%
    18:00 +3°C° 0 mm 3 mps 762 mmHg 77%
    19:00 +3°C° 0 mm 3 mps 763 mmHg 81%
    20:00 +2°C° 0 mm 3 mps 763 mmHg 86%
    21:00 +1°C° 0 mm 3 mps 763 mmHg 90%
    22:00 +1°C° 0 mm 3 mps 763 mmHg 90%
    23:00 +1°C° 0 mm 3 mps 763 mmHg 91%

    Tomorrow, 31 March, Tuesday

    Time Temperature Precipitation Wind Pressure Humidity
    00:00 0°C° 0 mm 3 mps 763 mmHg 92%
    01:00 0°C° 0 mm 3 mps 763 mmHg 93%
    02:00 -1°C° 0 mm 3 mps 763 mmHg 94%
    03:00 -1°C° 0 mm 3 mps 763 mmHg 94%
    04:00 -1°C° 0 mm 3 mps 764 mmHg 94%
    05:00 -2°C° 0 mm 4 mps 764 mmHg 93%
    06:00 -2°C° 0 mm 4 mps 764 mmHg 92%
    07:00 0°C° 0 mm 5 mps 764 mmHg 81%
    08:00 +1°C° 0 mm 5 mps 765 mmHg 70%
    09:00 +3°C° 0 mm 6 mps 765 mmHg 58%
    10:00 +4°C° 0 mm 6 mps 765 mmHg 54%
    11:00 +6°C° 0 mm 5 mps 764 mmHg 49%
    12:00 +7°C° 0 mm 5 mps 764 mmHg 44%
    13:00 +7°C° 0 mm 5 mps 764 mmHg 44%
    14:00 +7°C° 0 mm 5 mps 763 mmHg 44%
    15:00 +8°C° 0 mm 5 mps 763 mmHg 43%
    16:00 +6°C° 0 mm 4 mps 763 mmHg 48%
    17:00 +5°C° 0 mm 4 mps 763 mmHg 53%
    18:00 +4°C° 0 mm 3 mps 763 mmHg 57%
    19:00 +3°C° 0 mm 3 mps 763 mmHg 58%
    20:00 +2°C° 0 mm 3 mps 763 mmHg 58%
    21:00 +2°C° 0 mm 2 mps 763 mmHg 59%
    22:00 +1°C° 0 mm 2 mps 763 mmHg 60%
    23:00 +1°C° 0 mm 2 mps 762 mmHg 61%

    Day after tomorrow, 1 April, Wednesday

    Time Temperature Precipitation Wind Pressure Humidity
    00:00 -1°C° 0 mm 2 mps 762 mmHg 62%
    01:00 -1°C° 0 mm 2 mps 762 mmHg 64%
    02:00 -1°C° 0 mm 2 mps 761 mmHg 65%
    03:00 -2°C° 0 mm 2 mps 761 mmHg 67%
    04:00 0°C° 0 mm 1 mps 761 mmHg 67%
    05:00 +1°C° 0 mm 1 mps 761 mmHg 66%
    06:00 +1°C° 0 mm 1 mps 761 mmHg 66%
    07:00 +3°C° 0 mm 1 mps 760 mmHg 61%
    08:00 +4°C° 0 mm 2 mps 760 mmHg 55%
    09:00 +6°C° 0 mm 2 mps 760 mmHg 50%
    10:00 +7°C° 0 mm 2 mps 760 mmHg 49%
    11:00 +8°C° 0 mm 2 mps 759 mmHg 47%
    12:00 +9°C° 0 mm 2 mps 759 mmHg 46%
    13:00 +9°C° 0 mm 2 mps 758 mmHg 48%
    14:00 +9°C° 0 mm 2 mps 758 mmHg 50%
    15:00 +10°C° 0 mm 3 mps 757 mmHg 51%
    16:00 +8°C° 0 mm 3 mps 757 mmHg 59%
    17:00 +7°C° 0 mm 3 mps 757 mmHg 66%
    18:00 +4°C° 0 mm 3 mps 757 mmHg 74%
    19:00 +4°C° 0 mm 2 mps 757 mmHg 76%
    20:00 +3°C° 0 mm 2 mps 757 mmHg 79%
    21:00 +2°C° 0 mm 2 mps 757 mmHg 82%
    22:00 +3°C° 0 mm 1 mps 757 mmHg 83%
    23:00 +2°C° 0 mm 1 mps 757 mmHg 84%

    2 April, Thursday

    Time Temperature Precipitation Wind Pressure Humidity
    00:00 +1°C° 0 mm 0 mps 757 mmHg 85%
    01:00 +1°C° 0 mm 1 mps 756 mmHg 85%
    02:00 +1°C° 0 mm 1 mps 756 mmHg 85%
    03:00 +1°C° 0 mm 1 mps 756 mmHg 85%
    04:00 +1°C° 0 mm 1 mps 756 mmHg 84%
    05:00 +2°C° 0 mm 1 mps 755 mmHg 84%
    06:00 +2°C° 0 mm 1 mps 755 mmHg 83%
    07:00 +3°C° 0 mm 2 mps 755 mmHg 75%
    08:00 +5°C° 0 mm 2 mps 755 mmHg 67%
    09:00 +7°C° 0 mm 2 mps 755 mmHg 59%
    10:00 +8°C° 0 mm 2 mps 754 mmHg 58%
    11:00 +8°C° 0 mm 2 mps 754 mmHg 57%
    12:00 +8°C° 0 mm 2 mps 754 mmHg 56%
    13:00 +8°C° 0 mm 3 mps 753 mmHg 57%
    14:00 +8°C° 0 mm 3 mps 753 mmHg 58%
    15:00 +8°C° 0 mm 3 mps 753 mmHg 59%
    16:00 +7°C° 0 mm 3 mps 753 mmHg 63%
    17:00 +7°C° 0 mm 3 mps 752 mmHg 67%
    18:00 +6°C° 0 mm 2 mps 752 mmHg 71%
    19:00 +4°C° 0 mm 3 mps 752 mmHg 75%
    20:00 +4°C° 0 mm 3 mps 752 mmHg 80%
    21:00 +3°C° 0 mm 3 mps 753 mmHg 84%
    22:00 +4°C° 0 mm 4 mps 752 mmHg 87%
    23:00 +4°C° 0 mm 4 mps 752 mmHg 90%

    3 April, Friday

    Time Temperature Precipitation Wind Pressure Humidity
    00:00 +4°C° 0 mm 4 mps 752 mmHg 93%
    01:00 +4°C° 0.1 mm 3 mps 752 mmHg 94%
    02:00 +4°C° 0.1 mm 3 mps 752 mmHg 95%
    03:00 +4°C° 0.1 mm 3 mps 752 mmHg 96%
    04:00 +4°C° 0 mm 3 mps 753 mmHg 96%
    05:00 +4°C° 0 mm 3 mps 753 mmHg 96%
    06:00 +5°C° 0 mm 2 mps 754 mmHg 96%
    07:00 +6°C° 0 mm 2 mps 754 mmHg 90%
    08:00 +7°C° 0 mm 2 mps 755 mmHg 84%
    09:00 +8°C° 0 mm 2 mps 755 mmHg 78%
    10:00 +9°C° 0.1 mm 2 mps 755 mmHg 74%
    11:00 +9°C° 0.1 mm 3 mps 756 mmHg 70%
    12:00 +9°C° 0.1 mm 3 mps 756 mmHg 65%
    13:00 +9°C° 0 mm 3 mps 756 mmHg 62%
    14:00 +10°C° 0 mm 3 mps 756 mmHg 59%
    15:00 +10°C° 0 mm 3 mps 756 mmHg 56%
    16:00 +9°C° 0 mm 3 mps 757 mmHg 59%
    17:00 +7°C° 0 mm 3 mps 757 mmHg 62%
    18:00 +5°C° 0 mm 3 mps 757 mmHg 65%
    19:00 +4°C° 0 mm 3 mps 758 mmHg 66%
    20:00 +3°C° 0 mm 3 mps 758 mmHg 67%
    21:00 +2°C° 0 mm 3 mps 759 mmHg 67%
    22:00 +1°C° 0 mm 3 mps 759 mmHg 69%
    23:00 +1°C° 0 mm 3 mps 759 mmHg 72%

    4 April, Saturday

    Time Temperature Precipitation Wind Pressure Humidity
    00:00 +1°C° 0 mm 3 mps 760 mmHg 74%
    01:00 +1°C° 0 mm 3 mps 760 mmHg 74%
    02:00 0°C° 0 mm 3 mps 760 mmHg 75%
    03:00 0°C° 0 mm 3 mps 760 mmHg 76%
    04:00 +1°C° 0 mm 2 mps 760 mmHg 75%
    05:00 +1°C° 0 mm 2 mps 760 mmHg 75%
    06:00 +1°C° 0 mm 2 mps 760 mmHg 74%
    07:00 +4°C° 0 mm 2 mps 760 mmHg 69%
    08:00 +6°C° 0 mm 2 mps 760 mmHg 63%
    09:00 +9°C° 0 mm 2 mps 760 mmHg 58%
    10:00 +10°C° 0 mm 2 mps 760 mmHg 55%
    11:00 +13°C° 0 mm 2 mps 760 mmHg 52%
    12:00 +14°C° 0 mm 2 mps 760 mmHg 50%
    13:00 +15°C° 0 mm 2 mps 759 mmHg 48%
    14:00 +15°C° 0 mm 2 mps 759 mmHg 46%
    15:00 +16°C° 0 mm 2 mps 759 mmHg 45%
    16:00 +14°C° 0 mm 2 mps 759 mmHg 50%
    17:00 +13°C° 0 mm 2 mps 759 mmHg 56%
    18:00 +10°C° 0 mm 2 mps 759 mmHg 62%
    19:00 +9°C° 0 mm 2 mps 759 mmHg 66%
    20:00 +8°C° 0 mm 2 mps 759 mmHg 69%
    21:00 +7°C° 0 mm 2 mps 760 mmHg 72%
    22:00 +7°C° 0 mm 2 mps 760 mmHg 73%
    23:00 +6°C° 0 mm 2 mps 760 mmHg 75%
    Show more